Eglinton, United Kingdom

8:18 AM BST on July 26, 2017 (GMT +0100)
Eglinton

Weather History for EGAE - January, 2013

Change the Weather History Date:

Saturday, January 12, 2013

  Actual Average Record
Temperature  
Mean Temperature 42 °F -  
Max Temperature 44 °F 44 °F 55 °F (1997)
Min Temperature 39 °F 39 °F 33 °F (2017)
Degree Days  
Heating Degree Days 22    
Moisture  
Dew Point 40 °F    
Average Humidity 86    
Maximum Humidity 93    
Minimum Humidity 81    
Precipitation  
Precipitation 0.00 in - - ()
Sea Level Pressure  
Sea Level Pressure 29.92 in    
Wind  
Wind Speed 7 mph ()    
Max Wind Speed 10 mph    
Max Gust Speed -    
Visibility 6.2 miles    
Events      
Averages and records for this station are not official NWS values.
T = Trace of Precipitation, MM = Missing Value Source: Averaged Metar Reports

Daily Weather History Graph

Daily Weather History Graph

Search for Another Location

Airport or City:

Trip Planner

Search our weather history database for the weather conditions in past years. The results will help you decide how hot, cold, wet, or windy it might be!

Date:

Astronomy

Jan. 12, 2013 Rise Set
Actual Time 8:47 AM GMT 4:27 PM GMT
Civil Twilight 8:03 AM GMT 5:10 PM GMT
Nautical Twilight 7:17 AM GMT 5:57 PM GMT
Astronomical Twilight 6:33 AM GMT 6:40 PM GMT
Moon 8:40 AM GMT (1/12) 5:59 PM GMT (1/12)
Length of Visible Light 9h 06m
Length of Day
7h 39m
New Moon, 1% of the Moon is Illuminated
Jan 12
New Moon
Jan 18
First Quarter
Jan 27
Full
Feb 3
Last Quarter
Feb 10
New

Hourly Weather History & Observations

Time (GMT) Temp. Windchill Dew Point Humidity Pressure Visibility Wind Dir Wind Speed Gust Speed Precip Events Conditions
5:50 AM 42.8 °F 37.0 °F 41.0 °F 93% 29.83 in 6.2 mi East 10.4 mph - N/A   Mostly Cloudy
6:20 AM 42.8 °F 37.0 °F 41.0 °F 93% 29.83 in 6.2 mi East 10.4 mph - N/A   Mostly Cloudy
6:50 AM 44.6 °F 40.2 °F 41.0 °F 87% 29.83 in 6.2 mi East 8.1 mph - N/A   Scattered Clouds
7:20 AM 44.6 °F 43.1 °F 41.0 °F 87% 29.86 in 6.2 mi Variable 3.5 mph - N/A   Partly Cloudy
7:50 AM 42.8 °F 41.1 °F 41.0 °F 93% 29.86 in 6.2 mi Variable 3.5 mph - N/A   Mostly Cloudy
8:20 AM 42.8 °F 40.1 °F 41.0 °F 93% 29.86 in 6.2 mi ENE 4.6 mph - N/A   Mostly Cloudy
8:50 AM 42.8 °F 37.0 °F 39.2 °F 87% 29.89 in 6.2 mi East 10.4 mph - N/A   Mostly Cloudy
9:20 AM 44.6 °F 41.4 °F 41.0 °F 87% 29.89 in 6.2 mi ENE 5.8 mph - N/A   Mostly Cloudy
9:50 AM 42.8 °F 38.6 °F 39.2 °F 87% 29.92 in 6.2 mi East 6.9 mph - N/A   Mostly Cloudy
10:20 AM 44.6 °F 41.4 °F 41.0 °F 87% 29.92 in 6.2 mi East 5.8 mph - N/A   Mostly Cloudy
10:50 AM 44.6 °F 41.4 °F 41.0 °F 87% 29.95 in 6.2 mi ENE 5.8 mph - N/A   Mostly Cloudy
11:20 AM 44.6 °F 39.2 °F 39.2 °F 81% 29.95 in 6.2 mi East 10.4 mph - N/A   Mostly Cloudy
11:50 AM 42.8 °F 38.6 °F 39.2 °F 87% 29.95 in 6.2 mi East 6.9 mph - N/A   Mostly Cloudy
12:20 PM 44.6 °F 40.2 °F 39.2 °F 81% 29.95 in 6.2 mi East 8.1 mph - N/A   Mostly Cloudy
12:50 PM 44.6 °F 39.7 °F 39.2 °F 81% 29.95 in 6.2 mi East 9.2 mph - N/A   Mostly Cloudy
1:20 PM 44.6 °F 39.7 °F 39.2 °F 81% 29.95 in 6.2 mi ESE 9.2 mph - N/A   Mostly Cloudy
1:50 PM 44.6 °F 40.2 °F 39.2 °F 81% 29.95 in 6.2 mi East 8.1 mph - N/A   Mostly Cloudy
2:20 PM 44.6 °F 39.2 °F 39.2 °F 81% 29.98 in 6.2 mi East 10.4 mph - N/A   Mostly Cloudy
2:50 PM 44.6 °F 40.7 °F 39.2 °F 81% 29.98 in 6.2 mi East 6.9 mph - N/A   Mostly Cloudy
3:20 PM 42.8 °F 38.6 °F 37.4 °F 81% 29.98 in 6.2 mi East 6.9 mph - N/A   Mostly Cloudy
3:50 PM 41.0 °F 37.1 °F 37.4 °F 87% 30.01 in 6.2 mi East 5.8 mph - N/A   Partly Cloudy
4:20 PM 39.2 °F 37.0 °F 35.6 °F 87% 30.01 in 6.2 mi ESE 3.5 mph - N/A   Partly Cloudy